TimeEDT,TemperatureF,Dew PointF,Humidity,Sea Level PressureIn,VisibilityMPH,Wind Direction,Wind SpeedMPH,Gust SpeedMPH,PrecipitationIn,Events,Conditions,WindDirDegrees,DateUTC
12:54 AM,64.0,57.9,80,30.00,10.0,NE,4.6,-,N/A,,Clear,40,2013-06-19 04:54:00
1:54 AM,64.9,57.9,78,30.01,10.0,ENE,8.1,-,N/A,,Partly Cloudy,60,2013-06-19 05:54:00
2:54 AM,64.0,57.9,80,30.02,10.0,NE,6.9,-,N/A,,Clear,50,2013-06-19 06:54:00
3:54 AM,63.0,57.9,84,30.02,10.0,ENE,6.9,-,N/A,,Clear,60,2013-06-19 07:54:00
4:54 AM,62.1,57.9,86,30.03,10.0,ENE,5.8,-,N/A,,Clear,60,2013-06-19 08:54:00
5:54 AM,61.0,57.0,87,30.06,9.0,ENE,6.9,-,N/A,,Clear,60,2013-06-19 09:54:00
6:54 AM,61.0,57.0,87,30.08,6.0,ENE,8.1,-,N/A,,Clear,60,2013-06-19 10:54:00
7:54 AM,62.1,57.9,86,30.09,6.0,East,10.4,-,N/A,,Clear,80,2013-06-19 11:54:00
8:54 AM,64.9,57.9,78,30.11,9.0,East,11.5,-,N/A,,Clear,80,2013-06-19 12:54:00
9:54 AM,68.0,57.9,70,30.11,10.0,ESE,9.2,-,N/A,,Clear,110,2013-06-19 13:54:00
10:54 AM,70.0,59.0,68,30.11,10.0,ENE,6.9,-,N/A,,Clear,70,2013-06-19 14:54:00
11:54 AM,72.0,57.0,59,30.12,10.0,ENE,8.1,-,N/A,,Overcast,70,2013-06-19 15:54:00
12:54 PM,75.0,57.0,53,30.11,10.0,ENE,8.1,-,N/A,,Partly Cloudy,60,2013-06-19 16:54:00
1:54 PM,75.9,57.0,52,30.09,10.0,NE,5.8,-,N/A,,Clear,50,2013-06-19 17:54:00
2:54 PM,77.0,57.9,52,30.07,10.0,Calm,Calm,-,N/A,,Partly Cloudy,0,2013-06-19 18:54:00
3:54 PM,78.1,57.9,50,30.06,10.0,Variable,5.8,-,N/A,,Clear,0,2013-06-19 19:54:00
4:54 PM,78.1,57.9,50,30.06,10.0,NNE,5.8,-,N/A,,Partly Cloudy,20,2013-06-19 20:54:00
5:54 PM,78.1,57.9,50,30.06,10.0,NNE,6.9,-,N/A,,Clear,20,2013-06-19 21:54:00
6:54 PM,78.1,57.9,50,30.06,10.0,NNE,8.1,-,N/A,,Clear,30,2013-06-19 22:54:00
7:54 PM,77.0,57.9,52,30.06,10.0,NNE,8.1,-,N/A,,Clear,30,2013-06-19 23:54:00
8:54 PM,73.0,57.0,57,30.07,10.0,NE,5.8,-,N/A,,Clear,50,2013-06-20 00:54:00
9:54 PM,70.0,57.9,65,30.07,10.0,NE,5.8,-,N/A,,Clear,40,2013-06-20 01:54:00
10:54 PM,69.1,57.9,68,30.09,10.0,ENE,6.9,-,N/A,,Clear,60,2013-06-20 02:54:00
11:54 PM,69.1,57.0,65,30.09,10.0,ENE,6.9,-,N/A,,Clear,70,2013-06-20 03:54:00